STARLINK-30295, 57683

Orbit data source: Space-Track

STARLINK-30295, 57683 is a payload satellite owned by SpaceX/Seattle (US) in LEO that was launched on Tue, 22 Aug 2023 UTC via an FALCON 9 launch vehicle from the Air Force Western Test Range (AFWTR). Payload-class satellites include a variety of spacecraft equipped with specific instruments for various scientific and technological missions. These include communications satellites like Starlink; space stations such as the ISS; scientific satellites like the Hubble; Earth observation satellites from companies like Planet Labs, Umbra, and HawkEye 360; GPS; miniature CubeSats for education and research; and military/defense satellites.

Loading next visibility...
Identifier
57683, 2023-124W
Orbit
LEO
Country
Flag of USUS
Related business
Manufacturer
SpaceX/Seattle
Mission
Operational Commercial Communications
Bus & Motor
STARLINK V2M, Unknown motor
Mass
730 kg wet, ~700 kg dry
Launch date (UTC)
2023-08-22 (3 years ago)
Launch vehicle
FALCON 9
Launch site
Air Force Western Test Range (AFWTR)
Object type
Payload
Rocket body
Debris
Shape & HBR
Box + 2 Pan, 17.7 m
Radar Cross Section
33.884 m², Large (>1 m²)

Expand to show TLE details & history
Last TLE update: 2 days ago

TLE from 2 days ago
0 STARLINK-30295
1 57683U 23124W   26171.16851490  .00000867  00000-0  41385-4 0  9998
2 57683  53.1602  91.0642 0001601  89.4136 270.7048 15.30203299159253
Epoch: 2026-06-20T04:02Z
TLE epoch observation values (Epoch: 2026-06-20T04:02:39.687Z)
Latitude
-0.00003°
Longitude
122.01181°
Altitude
476.092 km
Speed
7.629 km/s
True Right ascension
06h 04m 15s
True Declination
0° 00' 00"
Sunlit
Object was in daylight at epoch
Visualization orbit readout
Latitude
Unknown
Longitude
Unknown
Altitude
Unknown
Speed
Unknown
Apparent Right ascension
Unknown
Apparent Declination
Unknown
Sunlit
N/A
Visualization observer readout
Local Sidereal Time
21:28:35
Azimuth
Unknown
Elevation
Unknown
Doppler factor
Unknown
Orbital elements
Apogee altitude
476.559 km
Perigee altitude
474.364 km
Semi-major axis
6,853.599 km
Eccentricity
0.00016
Inclination
53.1602°
RAAN
91.0642°
Arg. of periapsis
89.4136°
True anomaly
270.68646°
Mean anomaly
270.7048°
Eccentric anomaly
270.69563°
Mean motion
3.8253 °/min
Orbital period
94.11 mins
BSTAR
0.000041385
Loading maneuver chart data...
Computing Atmospheric mass density...
Loading historical data...
Loading historical data...
Loading historical data...
Loading historical data...
Loading historical data...
Loading historical data...
Loading historical data...

Documentation

Showing up to 5 results
|